• In Hungary
  • List of Countries
  • For 7 days
  • Water Temperature
  • Satellite Maps
  • Weather Map
  • News
  • Weather Widgets
  • user-avatar
    Login

    Hourly Weather Pyzowka

    Today, 21 October, Sunday

    Time Temperature Precipitation Wind Pressure Humidity
    00:00 +3°C° 0 mm 3 mps 700 mmHg 85%
    01:00 +4°C° 0 mm 2 mps 700 mmHg 86%
    02:00 +3°C° 0 mm 2 mps 700 mmHg 88%
    03:00 +3°C° 0 mm 2 mps 700 mmHg 89%
    04:00 +3°C° 0 mm 2 mps 700 mmHg 91%
    05:00 +3°C° 0.2 mm 2 mps 700 mmHg 91%
    06:00 +3°C° 0.2 mm 2 mps 700 mmHg 90%
    07:00 +4°C° 0.2 mm 2 mps 701 mmHg 90%
    08:00 +4°C° 0.3 mm 2 mps 701 mmHg 90%
    09:00 +4°C° 0.3 mm 3 mps 701 mmHg 89%
    10:00 +4°C° 0.3 mm 3 mps 701 mmHg 89%
    11:00 +4°C° 0.1 mm 3 mps 701 mmHg 87%
    12:00 +5°C° 0.1 mm 3 mps 702 mmHg 85%
    13:00 +5°C° 0.1 mm 3 mps 702 mmHg 83%
    14:00 +6°C° 0 mm 2 mps 702 mmHg 83%
    15:00 +7°C° 0 mm 2 mps 702 mmHg 82%
    16:00 +7°C° 0 mm 2 mps 702 mmHg 81%
    17:00 +6°C° 0 mm 2 mps 702 mmHg 83%
    18:00 +5°C° 0 mm 2 mps 702 mmHg 85%
    19:00 +4°C° 0 mm 2 mps 702 mmHg 87%
    20:00 +5°C° 0 mm 1 mps 702 mmHg 89%
    21:00 +4°C° 0 mm 1 mps 702 mmHg 90%
    22:00 +4°C° 0 mm 1 mps 702 mmHg 92%
    23:00 +4°C° 0 mm 1 mps 702 mmHg 91%

    Tomorrow, 22 October, Monday

    Time Temperature Precipitation Wind Pressure Humidity
    00:00 +3°C° 0 mm 1 mps 702 mmHg 91%
    01:00 +3°C° 0 mm 1 mps 702 mmHg 90%
    02:00 +3°C° 0 mm 1 mps 702 mmHg 89%
    03:00 +3°C° 0 mm 1 mps 702 mmHg 89%
    04:00 +2°C° 0 mm 0 mps 702 mmHg 88%
    05:00 +2°C° 0 mm 0 mps 702 mmHg 87%
    06:00 +3°C° 0 mm 1 mps 702 mmHg 85%
    07:00 +3°C° 0 mm 1 mps 702 mmHg 84%
    08:00 +5°C° 0 mm 0 mps 702 mmHg 76%
    09:00 +7°C° 0 mm 0 mps 703 mmHg 67%
    10:00 +9°C° 0 mm 0 mps 703 mmHg 58%
    11:00 +11°C° 0 mm 1 mps 703 mmHg 56%
    12:00 +12°C° 0 mm 1 mps 702 mmHg 53%
    13:00 +13°C° 0 mm 1 mps 702 mmHg 51%
    14:00 +11°C° 0 mm 1 mps 702 mmHg 56%
    15:00 +10°C° 0 mm 1 mps 701 mmHg 61%
    16:00 +9°C° 0 mm 1 mps 701 mmHg 66%
    17:00 +8°C° 0 mm 1 mps 700 mmHg 71%
    18:00 +7°C° 0 mm 1 mps 700 mmHg 76%
    19:00 +5°C° 0 mm 1 mps 700 mmHg 80%
    20:00 +5°C° 0 mm 1 mps 700 mmHg 82%
    21:00 +5°C° 0 mm 1 mps 700 mmHg 83%
    22:00 +5°C° 0 mm 1 mps 701 mmHg 84%
    23:00 +5°C° 0.2 mm 1 mps 701 mmHg 84%

    Day after tomorrow, 23 October, Tuesday

    Time Temperature Precipitation Wind Pressure Humidity
    00:00 +4°C° 0.2 mm 2 mps 701 mmHg 84%
    01:00 +5°C° 0.2 mm 2 mps 701 mmHg 85%
    02:00 +5°C° 0.3 mm 2 mps 700 mmHg 86%
    03:00 +5°C° 0.3 mm 2 mps 700 mmHg 87%
    04:00 +5°C° 0.3 mm 2 mps 700 mmHg 88%
    05:00 +4°C° 0 mm 2 mps 700 mmHg 90%
    06:00 +3°C° 0 mm 2 mps 700 mmHg 91%
    07:00 +3°C° 0 mm 2 mps 700 mmHg 92%
    08:00 +4°C° 0 mm 2 mps 700 mmHg 85%
    09:00 +4°C° 0 mm 2 mps 700 mmHg 79%
    10:00 +5°C° 0 mm 2 mps 700 mmHg 72%
    11:00 +5°C° 0 mm 3 mps 699 mmHg 66%
    12:00 +7°C° 0 mm 3 mps 698 mmHg 61%
    13:00 +6°C° 0 mm 4 mps 698 mmHg 55%
    14:00 +6°C° 0.1 mm 4 mps 697 mmHg 58%
    15:00 +5°C° 0.1 mm 4 mps 696 mmHg 61%
    16:00 +5°C° 0.1 mm 4 mps 695 mmHg 64%
    17:00 +3°C° 0.2 mm 5 mps 694 mmHg 67%
    18:00 +3°C° 0.2 mm 5 mps 693 mmHg 71%
    19:00 +3°C° 0.2 mm 6 mps 692 mmHg 74%
    20:00 +3°C° 0.4 mm 6 mps 691 mmHg 76%
    21:00 +3°C° 0.4 mm 7 mps 690 mmHg 79%
    22:00 +3°C° 0.4 mm 7 mps 689 mmHg 81%
    23:00 +4°C° 0.8 mm 7 mps 688 mmHg 82%

    24 October, Wednesday

    Time Temperature Precipitation Wind Pressure Humidity
    00:00 +4°C° 0.8 mm 8 mps 688 mmHg 84%
    01:00 +5°C° 0.8 mm 8 mps 687 mmHg 85%
    02:00 +4°C° 1.2 mm 8 mps 687 mmHg 83%
    03:00 +4°C° 1.2 mm 8 mps 687 mmHg 82%
    04:00 +4°C° 1.2 mm 8 mps 686 mmHg 80%
    05:00 +2°C° 0.4 mm 8 mps 687 mmHg 79%
    06:00 +1°C° 0.4 mm 8 mps 687 mmHg 78%
    07:00 0°C° 0.4 mm 8 mps 687 mmHg 76%
    08:00 0°C° 0.4 mm 8 mps 687 mmHg 73%
    09:00 0°C° 0.4 mm 8 mps 688 mmHg 70%
    10:00 0°C° 0.4 mm 8 mps 688 mmHg 67%
    11:00 0°C° 0.2 mm 8 mps 689 mmHg 64%
    12:00 0°C° 0.2 mm 8 mps 689 mmHg 61%
    13:00 0°C° 0.2 mm 8 mps 689 mmHg 58%
    14:00 0°C° 0.1 mm 7 mps 689 mmHg 60%
    15:00 +1°C° 0.1 mm 6 mps 689 mmHg 62%
    16:00 -1°C° 0.1 mm 6 mps 690 mmHg 64%
    17:00 0°C° 0.2 mm 5 mps 690 mmHg 66%
    18:00 0°C° 0.2 mm 5 mps 690 mmHg 68%
    19:00 -1°C° 0.2 mm 5 mps 691 mmHg 71%
    20:00 -1°C° 0.1 mm 5 mps 691 mmHg 72%
    21:00 -2°C° 0.1 mm 5 mps 691 mmHg 74%
    22:00 -2°C° 0.1 mm 4 mps 691 mmHg 75%
    23:00 -2°C° 0 mm 4 mps 692 mmHg 77%

    25 October, Thursday

    Time Temperature Precipitation Wind Pressure Humidity
    00:00 -2°C° 0 mm 4 mps 692 mmHg 79%
    01:00 -2°C° 0 mm 4 mps 692 mmHg 81%
    02:00 -3°C° 0 mm 4 mps 692 mmHg 82%
    03:00 -3°C° 0 mm 4 mps 692 mmHg 84%
    04:00 -3°C° 0 mm 4 mps 692 mmHg 85%
    05:00 -2°C° 0 mm 4 mps 692 mmHg 85%
    06:00 -2°C° 0 mm 4 mps 692 mmHg 85%
    07:00 -1°C° 0 mm 3 mps 692 mmHg 85%
    08:00 0°C° 0.2 mm 3 mps 692 mmHg 83%
    09:00 +1°C° 0.2 mm 3 mps 692 mmHg 81%
    10:00 +2°C° 0.2 mm 3 mps 692 mmHg 80%
    11:00 +3°C° 0.9 mm 4 mps 692 mmHg 83%
    12:00 +3°C° 0.9 mm 4 mps 691 mmHg 87%
    13:00 +4°C° 0.9 mm 4 mps 691 mmHg 91%
    14:00 +4°C° 0.7 mm 4 mps 691 mmHg 90%
    15:00 +5°C° 0.7 mm 4 mps 691 mmHg 90%
    16:00 +5°C° 0.7 mm 5 mps 691 mmHg 90%
    17:00 +5°C° 0.2 mm 5 mps 691 mmHg 91%
    18:00 +5°C° 0.2 mm 4 mps 691 mmHg 91%
    19:00 +4°C° 0.2 mm 4 mps 692 mmHg 92%
    20:00 +4°C° 0.1 mm 4 mps 692 mmHg 92%
    21:00 +4°C° 0.1 mm 4 mps 692 mmHg 93%
    22:00 +4°C° 0.1 mm 3 mps 692 mmHg 93%
    23:00 +4°C° 0 mm 3 mps 692 mmHg 93%

    26 October, Friday

    Time Temperature Precipitation Wind Pressure Humidity
    00:00 +4°C° 0 mm 3 mps 692 mmHg 93%
    01:00 +4°C° 0 mm 3 mps 692 mmHg 94%
    02:00 +4°C° 0 mm 3 mps 692 mmHg 93%
    03:00 +4°C° 0 mm 3 mps 692 mmHg 93%
    04:00 +5°C° 0 mm 2 mps 692 mmHg 93%
    05:00 +5°C° 0 mm 2 mps 692 mmHg 93%
    06:00 +4°C° 0 mm 2 mps 692 mmHg 93%
    07:00 +4°C° 0 mm 2 mps 692 mmHg 92%
    08:00 +5°C° 0 mm 2 mps 692 mmHg 87%
    09:00 +7°C° 0 mm 3 mps 693 mmHg 82%
    10:00 +8°C° 0 mm 3 mps 693 mmHg 77%
    11:00 +8°C° 0 mm 3 mps 692 mmHg 75%
    12:00 +9°C° 0 mm 3 mps 692 mmHg 73%
    13:00 +8°C° 0 mm 4 mps 692 mmHg 70%
    14:00 +9°C° 0 mm 3 mps 691 mmHg 74%
    15:00 +8°C° 0 mm 3 mps 691 mmHg 78%
    16:00 +7°C° 0 mm 2 mps 690 mmHg 82%
    17:00 +6°C° 0 mm 2 mps 690 mmHg 85%
    18:00 +6°C° 0 mm 2 mps 690 mmHg 88%
    19:00 +5°C° 0 mm 2 mps 689 mmHg 91%
    20:00 +5°C° 0 mm 2 mps 689 mmHg 91%
    21:00 +5°C° 0 mm 2 mps 689 mmHg 91%
    22:00 +6°C° 0 mm 2 mps 688 mmHg 92%
    23:00 +6°C° 0 mm 2 mps 688 mmHg 92%
    Show more